TimeEDT,TemperatureF,Dew PointF,Humidity,Sea Level PressureIn,VisibilityMPH,Wind Direction,Wind SpeedMPH,Gust SpeedMPH,PrecipitationIn,Events,Conditions,WindDirDegrees,DateUTC
12:54 AM,64.9,61.0,87,29.74,10.0,North,3.5,-,0.00,,Overcast,350,2013-05-12 04:54:00
1:26 AM,64.4,57.2,77,29.74,9.0,NW,4.6,-,0.00,Rain,Light Rain,320,2013-05-12 05:26:00
1:30 AM,64.4,57.2,77,29.75,4.0,WNW,8.1,-,0.00,Rain,Light Rain,300,2013-05-12 05:30:00
1:33 AM,64.4,57.2,77,29.75,2.5,West,6.9,-,0.00,Rain,Rain,280,2013-05-12 05:33:00
1:42 AM,64.4,57.2,77,29.73,5.0,NW,3.5,-,0.07,Rain,Heavy Rain,320,2013-05-12 05:42:00
1:54 AM,63.0,57.9,84,29.73,6.0,WNW,9.2,-,0.10,Rain,Light Rain,300,2013-05-12 05:54:00
2:23 AM,62.6,57.2,82,29.73,8.0,WNW,9.2,-,0.02,Rain,Light Rain,300,2013-05-12 06:23:00
2:54 AM,62.1,57.0,84,29.75,9.0,SSW,6.9,-,0.03,Rain,Light Rain,210,2013-05-12 06:54:00
3:51 AM,62.6,53.6,72,29.72,10.0,WNW,5.8,-,0.00,,Overcast,290,2013-05-12 07:51:00
3:54 AM,62.1,54.0,75,29.72,10.0,Variable,6.9,-,0.00,,Overcast,0,2013-05-12 07:54:00
4:54 AM,61.0,53.1,75,29.74,10.0,WNW,8.1,-,N/A,,Overcast,300,2013-05-12 08:54:00
5:54 AM,60.1,51.1,72,29.75,10.0,NW,4.6,-,0.00,,Mostly Cloudy,320,2013-05-12 09:54:00
6:54 AM,59.0,48.0,67,29.78,10.0,WNW,5.8,-,N/A,,Mostly Cloudy,290,2013-05-12 10:54:00
7:54 AM,59.0,46.0,62,29.76,10.0,West,8.1,-,N/A,,Mostly Cloudy,280,2013-05-12 11:54:00
8:54 AM,62.1,46.0,56,29.77,10.0,NW,9.2,17.3,N/A,,Partly Cloudy,310,2013-05-12 12:54:00
9:54 AM,64.0,45.0,50,29.77,10.0,WNW,15.0,-,N/A,,Mostly Cloudy,300,2013-05-12 13:54:00
10:54 AM,64.9,42.1,43,29.78,10.0,WNW,15.0,23.0,N/A,,Mostly Cloudy,300,2013-05-12 14:54:00
11:54 AM,66.0,37.0,34,29.78,10.0,West,23.0,27.6,N/A,,Scattered Clouds,280,2013-05-12 15:54:00
12:54 PM,64.9,25.0,22,29.79,10.0,WNW,20.7,27.6,N/A,,Partly Cloudy,290,2013-05-12 16:54:00
1:54 PM,64.9,26.1,23,29.81,10.0,NW,21.9,28.8,N/A,,Partly Cloudy,310,2013-05-12 17:54:00
2:54 PM,64.9,23.0,20,29.81,10.0,West,17.3,39.1,N/A,,Partly Cloudy,270,2013-05-12 18:54:00
3:54 PM,64.0,24.1,22,29.82,10.0,WNW,19.6,29.9,N/A,,Scattered Clouds,300,2013-05-12 19:54:00
4:54 PM,63.0,26.1,25,29.83,10.0,NW,18.4,27.6,N/A,,Scattered Clouds,310,2013-05-12 20:54:00
5:54 PM,63.0,24.1,23,29.85,10.0,WNW,24.2,32.2,N/A,,Mostly Cloudy,300,2013-05-12 21:54:00
6:54 PM,62.1,24.1,23,29.87,10.0,West,16.1,26.5,N/A,,Scattered Clouds,270,2013-05-12 22:54:00
7:54 PM,60.1,19.9,21,29.90,10.0,WNW,16.1,27.6,N/A,,Partly Cloudy,290,2013-05-12 23:54:00
8:54 PM,57.9,23.0,26,29.92,10.0,West,11.5,-,N/A,,Partly Cloudy,270,2013-05-13 00:54:00
9:54 PM,57.0,25.0,29,29.96,10.0,West,10.4,-,N/A,,Partly Cloudy,270,2013-05-13 01:54:00
10:54 PM,55.0,25.0,31,29.99,10.0,WNW,10.4,-,N/A,,Partly Cloudy,290,2013-05-13 02:54:00
11:54 PM,54.0,24.1,31,29.99,10.0,WNW,8.1,-,N/A,,Clear,290,2013-05-13 03:54:00